Flag for U.S.A. Weather past 2 weeks in Augusta, Georgia, U.S.A.

Now
68 °F

Light rain. Fog.


Feels Like: 68 °F
Forecast: 64 / 77 °F
Wind: 6 mph from East

Location: Daniel Field

Current Time: Apr 18, 2015 at 1:46:48 PM

Latest Report: Apr 18, 2015 at 12:53 PM


Visibility: 4 mi

Pressure: 29.99 "Hg

Humidity: 90%

Dew point: 65 °F

Location of AugustaLocation

Historic Weather in Augusta — Graph

°F

Augusta temperature yesterday

Maximum temperature yesterday: 70 °F (at 2:53 PM)
Minimum temperature yesterday: 56 °F (at 12:53 AM)
Average temperature yesterday: 62 °F

Past Weeks' High & Low Weather Summary

 TemperatureHumidityPressure
High89 °F (Apr 8, 4:53 PM)94% (Apr 12, 6:53 AM)30.34 "Hg (Apr 12, 6:53 AM)
Low51 °F (Apr 5, 7:53 AM)15% (Apr 4, 3:53 PM)29.92 "Hg (Apr 4, 2:53 AM)
Average70 °F67%30.12 "Hg
* Reported Apr 3 12:53 PM — Apr 18 12:53 PM, Augusta, Weather by CustomWeather, © 2015

Note: Actual official high and low records may vary slightly from our data, if they occured in-between our weather recording intervals... More about our weather records

Advertising

Augusta weather history for previous 24 hours

 ConditionsComfort  
Time TempWeatherWind HumidityBarometerVisibility
12:53 PM
Sat, Apr 18
68 °FLight rain. Fog.6 mph90%29.99 "Hg4 mi
11:53 AM68 °FRain. Fog.7 mph90%29.99 "Hg2 mi
11:04 AM67 °FHeavy rain. Fog.5 mph93%30.00 "Hg1 mi
10:53 AM67 °FHeavy rain. Fog.5 mph93%29.99 "Hg2 mi
9:53 AM67 °FLight rain. Fog.6 mph93%29.98 "Hg4 mi
8:53 AM67 °FLight rain. Fog.7 mph90%29.98 "Hg3 mi
7:53 AM66 °FLight rain. Fog.5 mph93%29.98 "Hg4 mi
6:53 AM66 °FMostly cloudy.3 mph93%29.97 "Hg10 mi
5:53 AM66 °FLow clouds.3 mph93%29.96 "Hg8 mi
5:00 AM66 °FLow clouds.5 mph90%29.97 "Hg10 mi
3:59 AM66 °FFog.No wind93%29.98 "Hg3 mi
3:02 AM66 °FLight rain. Fog.3 mph93%29.99 "Hg2 mi
2:53 AM66 °FLight rain. Fog.No wind93%29.97 "Hg3 mi
1:53 AM66 °FLight rain. Mostly cloudy.No wind93%29.99 "Hg10 mi
12:53 AM66 °FLight rain. Overcast.5 mph93%30.01 "Hg9 mi
11:57 PM
Fri, Apr 17
66 °FHeavy rain. Fog.No wind93%30.04 "Hg2 mi
10:58 PM66 °FLight rain. Fog.3 mph90%30.04 "Hg4 mi
9:53 PM67 °FMostly cloudy.No wind90%30.03 "Hg7 mi
8:53 PM67 °FLight rain. Overcast.No wind90%30.01 "Hg8 mi
7:53 PM67 °FLight rain. Cloudy.No wind90%30.01 "Hg7 mi
6:53 PM68 °FLight rain. Mostly cloudy.No wind84%30.01 "Hg10 mi
5:53 PM68 °FLight rain. Mostly cloudy.No wind87%30.02 "Hg10 mi
4:53 PM67 °FLight rain. Mostly cloudy.6 mph87%30.03 "Hg7 mi
3:53 PM68 °FLight rain. Overcast.No wind78%30.05 "Hg10 mi
2:53 PM70 °FOvercast.6 mph73%30.07 "Hg10 mi
1:53 PM68 °FOvercast.No wind76%30.09 "Hg10 mi
Weather by CustomWeather, © 2015

See weather overviewHow to use our weather pages